Buffalo, MN

2:24 AM CDT on August 27, 2016 (GMT -0500)
Buffalo

Weather History for KCFE - September, 2013

Change the Weather History Date:

Thursday, September 26, 2013

  Actual Average (KSTC) Record (KSTC)
Temperature  
Mean Temperature 68 °F 54 °F  
Max Temperature 80 °F 66 °F 86 °F (1920)
Min Temperature 56 °F 42 °F 22 °F (1965)
Degree Days  
Heating Degree Days 0 11  
Month to date heating degree days 180  
Since 1 July heating degree days 238  
Cooling Degree Days 2 0  
Month to date cooling degree days 31  
Year to date cooling degree days 460  
Growing Degree Days 18 (Base 50)    
Moisture  
Dew Point 54 °F    
Average Humidity 64    
Maximum Humidity 82    
Minimum Humidity 45    
Precipitation  
Precipitation 0.00 in 0.10 in 1.31 in (1908)
Month to date precipitation 3.09  
Year to date precipitation 22.67  
Snow  
Snow 0.00 in 0.00 in 1.80 in (1942)
Month to date snowfall 0.0  
Since 1 July snowfall 0.0  
Since 1 September snowfall 0.0  
Snow Depth -    
Sea Level Pressure  
Sea Level Pressure 29.88 in    
Wind  
Wind Speed 9 mph (ESE)    
Max Wind Speed 21 mph    
Max Gust Speed 28 mph    
Visibility 10 miles    
Events      
T = Trace of Precipitation, MM = Missing Value Source: NWS Daily Summary

Daily Weather History Graph

Daily Weather History Graph

Search for Another Location

Airport or City:

Trip Planner

Search our weather history database for the weather conditions in past years. The results will help you decide how hot, cold, wet, or windy it might be!

Date:

Astronomy

Sep. 26, 2013 Rise Set
Actual Time 7:07 AM CDT 7:04 PM CDT
Civil Twilight 6:38 AM CDT 7:34 PM CDT
Nautical Twilight 6:03 AM CDT 8:08 PM CDT
Astronomical Twilight 5:28 AM CDT 8:43 PM CDT
Moon 11:50 PM CDT (9/26) 2:14 PM CDT (9/26)
Length of Visible Light 12h 55m
Length of Day
11h 57m
Waning Gibbous, 54% of the Moon is Illuminated
Sep 26
Waning Gibbous
Sep 26
Last Quarter
Oct 4
New
Oct 11
First Quarter
Oct 18
Full

Hourly Weather History & Observations

Time (CDT) Temp. Dew Point Humidity Pressure Visibility Wind Dir Wind Speed Gust Speed Precip Events Conditions
12:15 AM 58.1 °F 50.0 °F 74% 29.91 in 10.0 mi ESE 5.8 mph - N/A   Clear
12:36 AM 57.4 °F 50.2 °F 77% 29.91 in 10.0 mi East 6.9 mph - N/A   Clear
12:56 AM 57.6 °F 50.4 °F 77% 29.91 in 10.0 mi ESE 6.9 mph - N/A   Clear
1:15 AM 57.2 °F 50.5 °F 78% 29.91 in 10.0 mi East 6.9 mph - N/A   Clear
1:36 AM 56.8 °F 50.9 °F 80% 29.92 in 10.0 mi East 5.8 mph - N/A   Clear
1:56 AM 56.7 °F 50.9 °F 81% 29.92 in 10.0 mi East 6.9 mph - N/A   Clear
2:15 AM 56.7 °F 50.9 °F 81% 29.91 in 10.0 mi East 6.9 mph - N/A   Clear
2:36 AM 56.7 °F 51.3 °F 82% 29.91 in 10.0 mi ESE 6.9 mph - N/A   Clear
2:56 AM 56.7 °F 51.1 °F 82% 29.90 in 10.0 mi ESE 8.1 mph - N/A   Clear
3:15 AM 56.8 °F 51.1 °F 81% 29.90 in 10.0 mi ESE 6.9 mph - N/A   Clear
3:36 AM 57.2 °F 51.3 °F 81% 29.89 in 10.0 mi ESE 9.2 mph - N/A   Clear
3:56 AM 57.7 °F 50.9 °F 78% 29.89 in 10.0 mi ESE 9.2 mph - N/A   Clear
4:15 AM 57.6 °F 50.9 °F 78% 29.89 in 10.0 mi ESE 8.1 mph - N/A   Clear
4:36 AM 57.4 °F 50.5 °F 78% 29.89 in 10.0 mi ESE 8.1 mph - N/A   Clear
4:56 AM 57.6 °F 50.4 °F 77% 29.89 in 10.0 mi ESE 9.2 mph - N/A   Clear
5:15 AM 57.7 °F 50.2 °F 76% 29.89 in 10.0 mi ESE 9.2 mph - N/A   Clear
5:36 AM 57.7 °F 50.0 °F 75% 29.89 in 10.0 mi ESE 9.2 mph - N/A   Clear
5:56 AM 57.6 °F 49.8 °F 75% 29.89 in 10.0 mi ESE 9.2 mph - N/A   Clear
6:15 AM 57.7 °F 49.6 °F 74% 29.89 in 10.0 mi ESE 10.4 mph - N/A   Clear
6:36 AM 57.7 °F 49.6 °F 74% 29.90 in 10.0 mi ESE 8.1 mph - N/A   Clear
6:56 AM 57.6 °F 49.8 °F 75% 29.89 in 10.0 mi ESE 9.2 mph - N/A   Clear
7:15 AM 57.4 °F 49.8 °F 76% 29.90 in 10.0 mi ESE 9.2 mph - N/A   Clear
7:36 AM 57.2 °F 49.8 °F 76% 29.90 in 10.0 mi ESE 9.2 mph - N/A   Clear
7:56 AM 57.6 °F 50.0 °F 76% 29.91 in 10.0 mi ESE 8.1 mph - N/A   Clear
8:15 AM 58.1 °F 50.2 °F 75% 29.91 in 10.0 mi ESE 6.9 mph - N/A   Clear
8:36 AM 59.5 °F 50.7 °F 73% 29.91 in 10.0 mi ESE 8.1 mph - N/A   Clear
8:56 AM 61.2 °F 50.9 °F 69% 29.92 in 10.0 mi ESE 11.5 mph 17.3 mph N/A   Clear
9:16 AM 62.1 °F 50.9 °F 67% 29.92 in 10.0 mi SE 11.5 mph 17.3 mph N/A   Clear
9:36 AM 63.5 °F 51.8 °F 66% 29.91 in 10.0 mi SE 11.5 mph 17.3 mph N/A   Clear
9:56 AM 64.2 °F 51.6 °F 64% 29.91 in 10.0 mi SE 15.0 mph 20.7 mph N/A   Clear
10:16 AM 65.5 °F 52.3 °F 62% 29.91 in 10.0 mi SE 10.4 mph 18.4 mph N/A   Clear
10:36 AM 66.6 °F 52.9 °F 61% 29.91 in 10.0 mi SE 12.7 mph 19.6 mph N/A   Clear
10:56 AM 67.5 °F 53.2 °F 60% 29.91 in 10.0 mi SE 9.2 mph 18.4 mph N/A   Clear
11:16 AM 69.1 °F 54.3 °F 59% 29.90 in 10.0 mi SE 11.5 mph 19.6 mph N/A   Clear
11:36 AM 70.0 °F 54.1 °F 57% 29.90 in 10.0 mi SE 12.7 mph 20.7 mph N/A   Clear
11:56 AM 71.1 °F 54.3 °F 55% 29.89 in 10.0 mi SE 10.4 mph 19.6 mph N/A   Clear
12:16 PM 72.9 °F 55.4 °F 54% 29.89 in 10.0 mi SE 12.7 mph 20.7 mph N/A   Clear
12:36 PM 73.8 °F 55.9 °F 54% 29.88 in 10.0 mi SE 16.1 mph 27.6 mph N/A   Clear
12:55 PM 75.7 °F 56.7 °F 51% 29.88 in 10.0 mi SE 17.3 mph 26.5 mph N/A   Clear
1:16 PM 76.1 °F 56.5 °F 50% 29.87 in 10.0 mi SE 13.8 mph 25.3 mph N/A   Clear
1:36 PM 77.0 °F 56.5 °F 49% 29.87 in 10.0 mi SE 16.1 mph 24.2 mph N/A   Clear
1:55 PM 77.4 °F 56.3 °F 48% 29.86 in 10.0 mi SE 20.7 mph 25.3 mph N/A   Clear
2:16 PM 78.1 °F 56.7 °F 48% 29.85 in 10.0 mi SE 16.1 mph 23.0 mph N/A   Clear
2:36 PM 78.1 °F 55.9 °F 46% 29.84 in 10.0 mi SE 15.0 mph 26.5 mph N/A   Clear
2:55 PM 79.0 °F 56.3 °F 46% 29.84 in 10.0 mi ESE 19.6 mph 25.3 mph N/A   Clear
3:16 PM 79.7 °F 56.8 °F 45% 29.83 in 10.0 mi SSE 13.8 mph 20.7 mph N/A   Clear
3:36 PM 79.7 °F 56.5 °F 45% 29.83 in 10.0 mi SE 16.1 mph 23.0 mph N/A   Clear
3:55 PM 79.7 °F 56.7 °F 45% 29.83 in 10.0 mi SE 12.7 mph 24.2 mph N/A   Clear
4:16 PM 79.7 °F 57.0 °F 46% 29.82 in 10.0 mi SE 18.4 mph 26.5 mph N/A   Clear
4:36 PM 79.9 °F 56.8 °F 45% 29.82 in 10.0 mi SE 18.4 mph 26.5 mph N/A   Clear
4:55 PM 79.7 °F 57.0 °F 46% 29.82 in 10.0 mi SE 16.1 mph 24.2 mph N/A   Clear
5:16 PM 79.7 °F 57.4 °F 46% 29.82 in 10.0 mi SE 15.0 mph 24.2 mph N/A   Clear
5:36 PM 79.7 °F 57.4 °F 46% 29.82 in 10.0 mi SE 8.1 mph 23.0 mph N/A   Clear
5:56 PM 78.6 °F 57.4 °F 48% 29.81 in 10.0 mi ESE 16.1 mph 21.9 mph N/A   Clear
6:16 PM 77.9 °F 57.2 °F 49% 29.81 in 10.0 mi SE 16.1 mph 24.2 mph N/A   Clear
6:36 PM 77.0 °F 57.6 °F 51% 29.81 in 10.0 mi ESE 12.7 mph 23.0 mph N/A   Clear
6:56 PM 76.1 °F 57.6 °F 53% 29.82 in 10.0 mi SE 9.2 mph 20.7 mph N/A   Clear
7:16 PM 75.6 °F 58.3 °F 55% 29.82 in 10.0 mi SE 9.2 mph 17.3 mph N/A   Clear
7:36 PM 74.3 °F 58.1 °F 57% 29.83 in 10.0 mi SE 8.1 mph - N/A   Clear
7:56 PM 73.8 °F 58.3 °F 58% 29.84 in 10.0 mi SE 9.2 mph - N/A   Clear
8:16 PM 73.8 °F 58.3 °F 58% 29.84 in 10.0 mi SE 8.1 mph - N/A   Clear
8:36 PM 73.2 °F 58.1 °F 59% 29.85 in 10.0 mi ESE 8.1 mph - N/A   Clear
8:56 PM 72.5 °F 58.1 °F 60% 29.86 in 10.0 mi ESE 8.1 mph - N/A   Clear
9:16 PM 72.5 °F 58.5 °F 61% 29.86 in 10.0 mi ESE 8.1 mph - N/A   Clear
9:36 PM 72.3 °F 58.5 °F 62% 29.87 in 10.0 mi ESE 9.2 mph - N/A   Clear
9:56 PM 71.6 °F 58.1 °F 62% 29.87 in 10.0 mi SE 8.1 mph - N/A   Clear
10:16 PM 71.1 °F 58.3 °F 64% 29.88 in 10.0 mi ESE 8.1 mph - N/A   Clear
10:35 PM 70.7 °F 58.3 °F 65% 29.88 in 10.0 mi ESE 6.9 mph - N/A   Clear
10:56 PM 69.3 °F 58.3 °F 68% 29.89 in 10.0 mi ESE 8.1 mph - N/A   Clear
11:15 PM 69.1 °F 58.5 °F 69% 29.89 in 10.0 mi SE 6.9 mph - N/A   Clear
11:36 PM 68.4 °F 58.6 °F 71% 29.90 in 10.0 mi SE 6.9 mph - N/A   Clear
11:56 PM 68.2 °F 58.5 °F 71% 29.90 in 10.0 mi ESE 8.1 mph - N/A   Clear